Volver al catálogo

SL-16 DEB

ActivoLEO
NORAD 22575·DEBRIS·🇷🇺 Russia

Lanzado Mar 26, 1993 desde Baikonur Cosmodrome

Loading…

Próximos Pases (próximas 24 horas)

TLE

ActualizadoSource: Space-Track

Época: Sep 14, 2026, 09:32 UTC

1 22575U 93016C   26257.39742142  .00000075  00000-0  10869-3 0  9993
2 22575  71.0042 121.3984 0203918  39.1698 134.6307 13.73470966676463

Sigue SL-16 DEB en tiempo real con AllMySat

Download on the App Store